Location: Kuppenheim
(48.8299°N, 8.2568°E)
Time: 08:05:37
(UTC+00:00)

N. Korean satellite - Pass Details

Date: 03 December 2022
Orbit: 407 x 442 km, 97.3° (Epoch: 04 February)

Event Time Altitude Azimuth Distance (km) Brightness Sun altitude
Rises 05:41:50 0° 2° (N) 2,526 10.0 -12.5°
Reaches altitude 10° 05:44:08 10° 349° (NNW) 1,640 8.9 -12.1°
Maximum altitude 05:47:02 25° 293° (WNW) 995 7.5 -11.7°
Drops below altitude 10° 05:49:55 10° 237° (WSW) 1,613 8.9 -11.2°
Sets 05:52:10 0° 224° (SW) 2,473 9.9 -10.9°
